When you browse on this site, cookies collect data to enhance your experience and personalize the content and advertising you see.
Visit our Privacy Policy to learn more. By continuing to use the site, you agree to this use of cookies and data.
  • In Romania
  • List of Countries
  • For 7 days
  • Water Temperature
  • Weather Map
  • Weather Widgets
  • user-avatar
    Login

    Hourly Weather San Fernando de Apure

    Today, 15 December, Sunday

    Time Temperature Precipitation Wind Pressure Humidity
    00:00 +26°C° 0.3 mm 1 mps 753 mmHg 91%
    01:00 +26°C° 0.3 mm 2 mps 753 mmHg 92%
    02:00 +26°C° 0 mm 2 mps 753 mmHg 93%
    03:00 +25°C° 1.2 mm 2 mps 753 mmHg 94%
    04:00 +25°C° 1.2 mm 2 mps 753 mmHg 95%
    05:00 +25°C° 1.2 mm 2 mps 753 mmHg 96%
    06:00 +25°C° 0.4 mm 2 mps 753 mmHg 94%
    07:00 +26°C° 0.4 mm 3 mps 754 mmHg 92%
    08:00 +26°C° 0 mm 3 mps 754 mmHg 90%
    09:00 +28°C° 0 mm 3 mps 755 mmHg 84%
    10:00 +29°C° 0 mm 3 mps 755 mmHg 78%
    11:00 +30°C° 0 mm 4 mps 755 mmHg 72%
    12:00 +31°C° 0 mm 3 mps 754 mmHg 68%
    13:00 +33°C° 0 mm 3 mps 753 mmHg 65%
    14:00 +34°C° 0 mm 3 mps 752 mmHg 61%
    15:00 +34°C° 0 mm 2 mps 752 mmHg 64%
    16:00 +32°C° 0 mm 2 mps 751 mmHg 67%
    17:00 +32°C° 0 mm 1 mps 751 mmHg 69%
    18:00 +31°C° 0 mm 1 mps 751 mmHg 71%
    19:00 +30°C° 0 mm 1 mps 752 mmHg 72%
    20:00 +29°C° 0 mm 1 mps 753 mmHg 74%
    21:00 +28°C° 0 mm 2 mps 753 mmHg 76%
    22:00 +28°C° 0 mm 2 mps 753 mmHg 78%
    23:00 +27°C° 0 mm 2 mps 754 mmHg 79%

    Tomorrow, 16 December, Monday

    Time Temperature Precipitation Wind Pressure Humidity
    00:00 +27°C° 0 mm 2 mps 753 mmHg 81%
    01:00 +26°C° 0 mm 2 mps 753 mmHg 83%
    02:00 +26°C° 0 mm 2 mps 753 mmHg 85%
    03:00 +26°C° 0 mm 2 mps 753 mmHg 85%
    04:00 +26°C° 0 mm 2 mps 753 mmHg 86%
    05:00 +25°C° 0 mm 3 mps 753 mmHg 86%
    06:00 +26°C° 0 mm 3 mps 753 mmHg 85%
    07:00 +26°C° 0 mm 3 mps 753 mmHg 84%
    08:00 +27°C° 0 mm 4 mps 754 mmHg 82%
    09:00 +28°C° 0 mm 4 mps 754 mmHg 77%
    10:00 +30°C° 0 mm 4 mps 754 mmHg 71%
    11:00 +32°C° 0 mm 4 mps 755 mmHg 65%
    12:00 +33°C° 0 mm 4 mps 753 mmHg 63%
    13:00 +34°C° 0 mm 4 mps 752 mmHg 60%
    14:00 +34°C° 0 mm 3 mps 751 mmHg 58%
    15:00 +34°C° 0 mm 3 mps 751 mmHg 60%
    16:00 +34°C° 0 mm 2 mps 750 mmHg 63%
    17:00 +32°C° 0 mm 2 mps 750 mmHg 65%
    18:00 +31°C° 0 mm 2 mps 750 mmHg 68%
    19:00 +30°C° 0 mm 2 mps 751 mmHg 70%
    20:00 +28°C° 0 mm 2 mps 751 mmHg 72%
    21:00 +28°C° 0 mm 2 mps 752 mmHg 74%
    22:00 +28°C° 0 mm 2 mps 752 mmHg 75%
    23:00 +27°C° 0 mm 3 mps 753 mmHg 77%

    Day after tomorrow, 17 December, Tuesday

    Time Temperature Precipitation Wind Pressure Humidity
    00:00 +27°C° 0 mm 3 mps 753 mmHg 80%
    01:00 +27°C° 0 mm 2 mps 752 mmHg 82%
    02:00 +26°C° 0 mm 2 mps 752 mmHg 84%
    03:00 +26°C° 0 mm 2 mps 752 mmHg 85%
    04:00 +26°C° 0 mm 2 mps 752 mmHg 86%
    05:00 +25°C° 0 mm 2 mps 752 mmHg 86%
    06:00 +26°C° 0 mm 3 mps 752 mmHg 85%
    07:00 +26°C° 0 mm 3 mps 753 mmHg 84%
    08:00 +27°C° 0 mm 4 mps 753 mmHg 82%
    09:00 +28°C° 0 mm 4 mps 753 mmHg 77%
    10:00 +29°C° 0 mm 4 mps 753 mmHg 72%
    11:00 +32°C° 0 mm 4 mps 754 mmHg 67%
    12:00 +32°C° 0 mm 4 mps 753 mmHg 64%
    13:00 +33°C° 0 mm 4 mps 752 mmHg 61%
    14:00 +34°C° 0 mm 4 mps 750 mmHg 58%
    15:00 +33°C° 0 mm 3 mps 750 mmHg 60%
    16:00 +33°C° 0 mm 3 mps 749 mmHg 62%
    17:00 +32°C° 0 mm 2 mps 749 mmHg 64%
    18:00 +31°C° 0 mm 2 mps 749 mmHg 65%
    19:00 +29°C° 0 mm 2 mps 750 mmHg 67%
    20:00 +28°C° 0 mm 2 mps 750 mmHg 69%
    21:00 +28°C° 0 mm 2 mps 751 mmHg 71%
    22:00 +27°C° 0 mm 2 mps 751 mmHg 73%
    23:00 +27°C° 0 mm 2 mps 752 mmHg 75%

    18 December, Wednesday

    Time Temperature Precipitation Wind Pressure Humidity
    00:00 +27°C° 0 mm 2 mps 752 mmHg 77%
    01:00 +26°C° 0 mm 2 mps 752 mmHg 78%
    02:00 +26°C° 0 mm 2 mps 751 mmHg 80%
    03:00 +26°C° 0 mm 2 mps 751 mmHg 81%
    04:00 +26°C° 0 mm 2 mps 751 mmHg 82%
    05:00 +26°C° 0 mm 2 mps 751 mmHg 82%
    06:00 +26°C° 0 mm 3 mps 752 mmHg 81%
    07:00 +26°C° 0 mm 3 mps 752 mmHg 80%
    08:00 +27°C° 0 mm 4 mps 753 mmHg 79%
    09:00 +28°C° 0 mm 4 mps 753 mmHg 75%
    10:00 +29°C° 0 mm 4 mps 753 mmHg 70%
    11:00 +30°C° 0 mm 5 mps 754 mmHg 66%
    12:00 +32°C° 0 mm 4 mps 753 mmHg 62%
    13:00 +33°C° 0 mm 4 mps 752 mmHg 57%
    14:00 +34°C° 0 mm 4 mps 751 mmHg 53%
    15:00 +33°C° 0 mm 4 mps 750 mmHg 56%
    16:00 +33°C° 0 mm 3 mps 750 mmHg 59%
    17:00 +31°C° 0 mm 3 mps 749 mmHg 62%
    18:00 +30°C° 0 mm 2 mps 750 mmHg 64%
    19:00 +29°C° 0 mm 2 mps 750 mmHg 67%
    20:00 +27°C° 0 mm 1 mps 751 mmHg 70%
    21:00 +27°C° 0 mm 1 mps 751 mmHg 71%
    22:00 +27°C° 0 mm 1 mps 752 mmHg 71%
    23:00 +27°C° 0 mm 1 mps 752 mmHg 72%

    19 December, Thursday

    Time Temperature Precipitation Wind Pressure Humidity
    00:00 +27°C° 0 mm 2 mps 752 mmHg 73%
    01:00 +27°C° 0 mm 2 mps 752 mmHg 74%
    02:00 +27°C° 0 mm 3 mps 752 mmHg 75%
    03:00 +26°C° 0 mm 3 mps 752 mmHg 77%
    04:00 +26°C° 0 mm 3 mps 752 mmHg 79%
    05:00 +25°C° 0 mm 3 mps 752 mmHg 81%
    06:00 +26°C° 0 mm 3 mps 752 mmHg 80%
    07:00 +26°C° 0 mm 3 mps 753 mmHg 79%
    08:00 +26°C° 0 mm 4 mps 753 mmHg 77%
    09:00 +28°C° 0 mm 4 mps 753 mmHg 72%
    10:00 +29°C° 0 mm 4 mps 754 mmHg 67%
    11:00 +32°C° 0 mm 4 mps 754 mmHg 62%
    12:00 +32°C° 0 mm 4 mps 753 mmHg 61%
    13:00 +33°C° 0 mm 4 mps 752 mmHg 59%
    14:00 +33°C° 0 mm 4 mps 752 mmHg 58%
    15:00 +33°C° 0 mm 3 mps 751 mmHg 60%
    16:00 +31°C° 0 mm 3 mps 750 mmHg 62%
    17:00 +31°C° 0 mm 2 mps 750 mmHg 65%
    18:00 +30°C° 0 mm 2 mps 751 mmHg 68%
    19:00 +29°C° 0 mm 2 mps 751 mmHg 71%
    20:00 +27°C° 0 mm 1 mps 752 mmHg 73%
    21:00 +27°C° 0 mm 1 mps 752 mmHg 74%
    22:00 +27°C° 0 mm 1 mps 753 mmHg 75%
    23:00 +27°C° 0 mm 1 mps 753 mmHg 76%

    20 December, Friday

    Time Temperature Precipitation Wind Pressure Humidity
    00:00 +26°C° 0.1 mm 1 mps 753 mmHg 78%
    01:00 +26°C° 0.1 mm 2 mps 753 mmHg 81%
    02:00 +26°C° 0.1 mm 2 mps 753 mmHg 84%
    03:00 +26°C° 0 mm 2 mps 753 mmHg 84%
    04:00 +25°C° 0 mm 2 mps 752 mmHg 85%
    05:00 +25°C° 0 mm 2 mps 752 mmHg 85%
    06:00 +26°C° 0 mm 2 mps 753 mmHg 84%
    07:00 +26°C° 0 mm 3 mps 753 mmHg 82%
    08:00 +27°C° 0 mm 3 mps 754 mmHg 80%
    09:00 +28°C° 0 mm 4 mps 754 mmHg 74%
    10:00 +30°C° 0 mm 4 mps 754 mmHg 68%
    11:00 +32°C° 0 mm 4 mps 754 mmHg 62%
    12:00 +33°C° 0 mm 4 mps 753 mmHg 60%
    13:00 +34°C° 0 mm 4 mps 752 mmHg 59%
    14:00 +34°C° 0 mm 4 mps 751 mmHg 57%
    15:00 +34°C° 0 mm 3 mps 751 mmHg 58%
    16:00 +34°C° 0 mm 3 mps 750 mmHg 60%
    17:00 +32°C° 0 mm 2 mps 750 mmHg 61%
    18:00 +31°C° 0 mm 2 mps 750 mmHg 64%
    19:00 +30°C° 0 mm 2 mps 751 mmHg 67%
    20:00 +29°C° 0 mm 1 mps 752 mmHg 71%
    21:00 +28°C° 0.1 mm 2 mps 752 mmHg 74%
    22:00 +28°C° 0.1 mm 2 mps 753 mmHg 77%
    23:00 +27°C° 0.1 mm 2 mps 753 mmHg 80%
    Show more